Brainerd, MN

3:04 AM CDT on October 17, 2017 (GMT -0500)
Brainerd-Crow Wing County Regional

Weather History for KBRD - November, 2012

Change the Weather History Date:

Monday, November 5, 2012

  Actual Average Record
Temperature  
Mean Temperature 36 °F -  
Max Temperature 39 °F 41 °F 71 °F (1975)
Min Temperature 34 °F 23 °F 8 °F (1991)
Degree Days  
Heating Degree Days 28    
Moisture  
Dew Point 30 °F    
Average Humidity 78    
Maximum Humidity 93    
Minimum Humidity 62    
Precipitation  
Precipitation 0.02 in - - ()
Sea Level Pressure  
Sea Level Pressure 30.11 in    
Wind  
Wind Speed 6 mph (SE)    
Max Wind Speed 13 mph    
Max Gust Speed 21 mph    
Visibility 7 miles    
Events Rain    
Averages and records for this station are not official NWS values.
T = Trace of Precipitation, MM = Missing Value Source: NWS Daily Summary

Daily Weather History Graph

Daily Weather History Graph

Search for Another Location

Airport or City:

Trip Planner

Search our weather history database for the weather conditions in past years. The results will help you decide how hot, cold, wet, or windy it might be!

Date:

Astronomy

Nov. 05, 2012 Rise Set
Actual Time 7:04 AM CST 4:55 PM CST
Civil Twilight 6:32 AM CST 5:27 PM CST
Nautical Twilight 5:56 AM CST 6:02 PM CST
Astronomical Twilight 5:21 AM CST 6:37 PM CST
Moon 10:34 PM CST (11/5) 12:25 PM CST (11/5)
Length of Visible Light 10h 54m
Length of Day
9h 50m
Waning Gibbous, 62% of the Moon is Illuminated
Nov 5
Waning Gibbous
Nov 6
Last Quarter
Nov 13
New
Nov 20
First Quarter
Nov 28
Full

Hourly Weather History & Observations

Time (CST) Temp. Windchill Dew Point Humidity Pressure Visibility Wind Dir Wind Speed Gust Speed Precip Events Conditions
12:53 AM 35.1 °F 29.3 °F 25.0 °F 67% 30.25 in 10.0 mi ENE 6.9 mph - N/A   Overcast
1:53 AM 35.1 °F 28.6 °F 25.0 °F 67% 30.25 in 10.0 mi ENE 8.1 mph - N/A   Overcast
2:53 AM 34.0 °F 28.0 °F 25.0 °F 70% 30.25 in 10.0 mi ENE 6.9 mph - N/A   Overcast
3:53 AM 34.0 °F 29.8 °F 26.1 °F 73% 30.25 in 10.0 mi NE 4.6 mph - N/A   Overcast
4:53 AM 34.0 °F 28.8 °F 26.1 °F 73% 30.24 in 10.0 mi ENE 5.8 mph - N/A   Overcast
5:53 AM 34.0 °F 29.8 °F 26.1 °F 73% 30.25 in 10.0 mi ENE 4.6 mph - N/A   Overcast
6:53 AM 34.0 °F 31.0 °F 25.0 °F 70% 30.24 in 10.0 mi NE 3.5 mph - N/A   Overcast
7:53 AM 34.0 °F 31.0 °F 25.0 °F 70% 30.24 in 10.0 mi ENE 3.5 mph - N/A   Overcast
8:53 AM 34.0 °F 31.0 °F 24.1 °F 67% 30.24 in 10.0 mi ENE 3.5 mph - N/A   Overcast
9:53 AM 35.1 °F 31.0 °F 24.1 °F 64% 30.23 in 10.0 mi East 4.6 mph - N/A   Overcast
10:53 AM 36.0 °F 32.1 °F 26.1 °F 67% 30.22 in 10.0 mi ESE 4.6 mph - N/A   Overcast
11:14 AM 37.4 °F 33.8 °F 26.6 °F 65% 30.17 in 10.0 mi East 4.6 mph - N/A   Overcast
11:36 AM 37.4 °F 33.8 °F 26.6 °F 65% 30.17 in 10.0 mi SE 4.6 mph - N/A   Overcast
11:53 AM 37.9 °F 34.4 °F 26.1 °F 62% 30.20 in 10.0 mi SE 4.6 mph - N/A   Overcast
12:53 PM 37.9 °F 35.5 °F 27.0 °F 65% 30.18 in 10.0 mi SE 3.5 mph - N/A   Overcast
1:13 PM 37.4 °F 32.8 °F 28.4 °F 70% 30.13 in 10.0 mi ESE 5.8 mph - N/A   Overcast
1:53 PM 37.9 °F 32.7 °F 28.0 °F 68% 30.14 in 10.0 mi SSE 6.9 mph - N/A   Overcast
2:53 PM 37.0 °F 32.4 °F 30.0 °F 76% 30.12 in 8.0 mi South 5.8 mph - N/A   Overcast
3:53 PM 36.0 °F 31.1 °F 32.0 °F 86% 30.11 in 2.0 mi South 5.8 mph - N/A   Overcast
4:01 PM 35.6 °F 31.7 °F 33.8 °F 93% 30.06 in 1.8 mi South 4.6 mph - N/A   Overcast
4:53 PM 36.0 °F 32.1 °F 33.1 °F 89% 30.09 in 1.8 mi South 4.6 mph - N/A   Overcast
5:02 PM 35.6 °F 31.7 °F 33.8 °F 93% 30.04 in 2.5 mi South 4.6 mph - N/A   Overcast
5:53 PM 36.0 °F 30.3 °F 33.1 °F 89% 30.06 in 2.5 mi South 6.9 mph - N/A   Overcast
6:32 PM 35.6 °F 30.7 °F 33.8 °F 93% 30.01 in 1.8 mi South 5.8 mph - N/A   Overcast
6:53 PM 37.0 °F 31.6 °F 34.0 °F 89% 30.04 in 2.0 mi South 6.9 mph - N/A   Overcast
7:53 PM 37.0 °F 29.8 °F 34.0 °F 89% 30.00 in 2.0 mi South 10.4 mph - N/A   Overcast
8:53 PM 37.9 °F 31.5 °F 36.0 °F 93% 29.97 in 2.0 mi South 9.2 mph - N/A   Overcast
9:12 PM 39.2 °F 32.5 °F 35.6 °F 87% 29.92 in 3.0 mi South 10.4 mph - N/A   Overcast
9:38 PM 39.2 °F 31.6 °F 35.6 °F 87% 29.91 in 7.0 mi SSW 12.7 mph 20.7 mph N/A   Overcast
9:53 PM 39.0 °F 31.8 °F 35.1 °F 86% 29.96 in 7.0 mi SSW 11.5 mph - N/A   Overcast
10:53 PM 37.9 °F 30.5 °F 34.0 °F 86% 29.92 in 8.0 mi SSW 11.5 mph - N/A   Overcast
11:37 PM 37.4 °F 30.8 °F 33.8 °F 87% 29.85 in 6.0 mi South 9.2 mph - 0.01 in Rain Light Rain
11:53 PM 37.9 °F 30.5 °F 34.0 °F 86% 29.88 in 5.0 mi South 11.5 mph - 0.02 in Rain Light Rain